SL-14 DEB *

Satellite information

Favourite Embed

Satellite Type and Status

DEBRISIN ORBIT

Key statistics

Satellite SL-14 DEB * at a glance.

Uptime

12381

Days in orbit

Revolutions

≈ 14.2

Per day

Orbit

LEO

Low Earth Orbit

Inclination

82.6

Latest

Satellite identification and parameters

Extended collection of information and parameters for SL-14 DEB *.

Object identification

Identified? True

Debris? True

Object name: SL-14 DEB *

International designator: 1991-056DL

Object number (NORAD): 47086

Object ID (CCSDS): 47086

Country: COMMONWEALTH OF INDEPENDENT STATES (CIS)

Current information (Y/N): Y

RCS size: SMALL

Orbital parameters

Period: 101.376 minutes

Inclination: 82.5538 deg

SMA: 7201.935 km

Apoapsis: 833.211 km

Periapsis: 814.39 km

RAAN: 169.3906 deg

Eccentricy: 0.0013067

Argument of periapsis: 358.6885 deg

Mean anomaly: 1.4258 deg

Mean motion: 14.20459756 rev/day

Mean motion (dot): 0.0000196 rev/day2

B* drag term: 0.00090576 1/REarth

Two-line elements (TLE)

Creation date: July 6, 2025, 6:05 p.m.

Reference frame: TEME

Reference center: EARTH

Epoch: July 6, 2025, 6:05 a.m. UTC

TLE line 0: 0 SL-14 DEB *

TLE line 1: 1 47086U 91056DL 25187.25349671 .00001960 00000-0 90576-3 0 9992

TLE line 2: 2 47086 82.5538 169.3906 0013067 358.6885 1.4258 14.20459756240988

Live tracking on map

Real-time ground track for satellite SL-14 DEB *.

In-orbit conjunctions

A list of the most updated potential collisions computed for object SL-14 DEB *.

Target Orbit TCA Probability of collision Miss distance Type
FENGYUN 1C DEB SSO 2025-05-05 17:18:52 0.0001170143 81.0 (m) DEBRIS
NOAA 16 DEB SSO 2024-09-07 05:27:31 0.0002228319 37.0 (m) DEBRIS

Associated space launch

Third generation meteorological satellite

SL-14 DEB * was lifted into orbit during the mission ‘Tsiklon-3 | Meteor-3 5’, on board a Tsiklon-3 space rocket.

The launch took place on Aug. 15, 1991, 9:15 a.m. from 32/2.

For more information about the launch, click the button.

Launch to space Tsiklon-3 | Meteor-3 5
Tsiklon-3 | Meteor-3 5

Agency: N/A

Status: Launch Successful

Launch date: Aug. 15, 1991, 9:15 a.m. UTC

Rocket: Tsiklon-3

Launch pad: 32/2

Location: Plesetsk Cosmodrome, Russian Federation

...

Latest news about this satellite

There are no fresh news available about this satellite. Check back as we update our databases every day.


Newsletter sign-up

Weekly statistics, charts and insights to help you stay on top of the space industry.